Regional Weather Roundup
Issued by NWS

Home | Current Version | Previous Version | Text Only | Print | Product List | Glossary On
Versions: 1 2 3 4 5 6 7 8 9 10 11 12 13 14 15 16 17 18 19 20 21 22 23 24 25 26 27 28 29 30 31 32 33 34 35 36 37 38 39 40 41 42 43 44 45 46 47 48 49 50
000
ASCA42 TJSJ 241311
RWRPR
PUERTO RICO/U.S. VIRGIN ISLANDS HOURLY WEATHER ROUNDUP
NATIONAL WEATHER SERVICE SAN JUAN PR
900 AM AST FRI OCT 24 2014

PRZ001-004-241400-
PUERTO RICO

CITY           SKY/WX    TMP DP  RH WIND       PRES   REMARKS
SAN JUAN LMM   MOSUNNY   84  75  74 CALM      29.96R HX  92
PONCE          MOSUNNY   88  75  66 E7        29.93R HX  97
AGUADILLA      SUNNY     82  73  74 E6        29.97R
CEIBA          MOSUNNY   88  75  66 S8        29.99R HX  97
$$

PRZ006-007-241400-
U.S. VIRGIN ISLANDS

CITY           SKY/WX    TMP DP  RH WIND       PRES   REMARKS
CHRISTIANSTED  MOSUNNY   84  75  74 E12       29.98R HX  92
$$

HOURLY WEATHER ROUNDUP FOR THE NEWS MEDIA

CITY           SKY/WX    TMP DP  RH WIND       PRES   REMARKS
MIAMI          CLOUDY    75  72  90 NE10      29.86R
ORLANDO        SUNNY     68  57  68 N12       29.99R
NEW YORK       PTSUNNY   53  43  68 NW15      29.82R
NEWARK         PTSUNNY   53  43  68 NW16G22   29.83R
CHICAGO        CLOUDY    52  46  80 W5        30.06R
HARTFORD       CLOUDY    51  48  89 VRB6      29.68R
BOSTON         CLOUDY    49  49 100 NW12G18   29.70S FOG
DALLAS         MOCLDY    63  55  75 S8        30.14S
PHILADELPHIA   MOSUNNY   58  44  60 NW14      29.87R



USA.gov is the U.S. government's official web portal to all federal, state and local government web resources and services.